Haines, AK

6:08 PM AKDT on March 26, 2017 (GMT -0800)
Haines

Weather History for PAHN - January, 2013

Change the Weather History Date:

Wednesday, January 30, 2013

  Actual Average Record
Temperature  
Mean Temperature 14 °F -  
Max Temperature 21 °F 28 °F 46 °F (1983)
Min Temperature 6 °F 20 °F -10 °F (1989)
Degree Days  
Heating Degree Days 52    
Moisture  
Dew Point 8 °F    
Average Humidity 77    
Maximum Humidity 86    
Minimum Humidity 68    
Precipitation  
Precipitation 0.00 in - - ()
Sea Level Pressure  
Sea Level Pressure 30.14 in    
Wind  
Wind Speed 13 mph (WNW)    
Max Wind Speed 18 mph    
Max Gust Speed -    
Visibility 8 miles    
Events Snow    
Averages and records for this station are not official NWS values.
T = Trace of Precipitation, MM = Missing Value Source: NWS Daily Summary

Daily Weather History Graph

Daily Weather History Graph

Search for Another Location

Airport or City:

Trip Planner

Search our weather history database for the weather conditions in past years. The results will help you decide how hot, cold, wet, or windy it might be!

Date:

Astronomy

Jan. 30, 2013 Rise Set
Actual Time 8:15 AM AKST 4:16 PM AKST
Civil Twilight 7:28 AM AKST 5:02 PM AKST
Nautical Twilight 6:39 AM AKST 5:52 PM AKST
Astronomical Twilight 5:51 AM AKST 6:40 PM AKST
Moon 9:39 PM AKST (1/30) 8:39 AM AKST (1/30)
Length of Visible Light 9h 34m
Length of Day
8h 01m
Waning Gibbous, 86% of the Moon is Illuminated
Jan 30
Waning Gibbous
Feb 3
Last Quarter
Feb 9
New
Feb 17
First Quarter
Feb 25
Full

Hourly Weather History & Observations

Time (AKST) Temp. Windchill Dew Point Humidity Pressure Visibility Wind Dir Wind Speed Gust Speed Precip Events Conditions
12:26 AM 6.8 °F -8.6 °F -0.4 °F 72% 30.17 in 10.0 mi WNW 11.5 mph - N/A   Overcast
12:54 AM 6.1 °F -11.6 °F -0.0 °F 76% 30.20 in 10.0 mi WNW 15.0 mph - 0.00 in   Overcast
1:54 AM 6.1 °F -11.6 °F -0.9 °F 73% 30.20 in 10.0 mi WNW 15.0 mph - N/A   Overcast
3:54 AM 6.1 °F -12.2 °F -0.0 °F 76% 30.22 in 10.0 mi WNW 16.1 mph - N/A   Overcast
4:54 AM 7.0 °F -7.5 °F 1.0 °F 77% 30.22 in 10.0 mi West 10.4 mph - N/A   Overcast
5:54 AM 7.0 °F -11.0 °F 1.0 °F 77% 30.22 in 10.0 mi WNW 16.1 mph - 0.00 in   Overcast
6:54 AM 8.1 °F -7.7 °F 1.9 °F 76% 30.21 in 10.0 mi WNW 12.7 mph - N/A   Overcast
7:54 AM 9.0 °F -6.6 °F 3.0 °F 77% 30.21 in 10.0 mi WNW 12.7 mph - N/A   Overcast
8:46 AM 8.6 °F -6.3 °F 3.2 °F 79% 30.21 in 10.0 mi WNW 11.5 mph - N/A   Overcast
8:54 AM 10.0 °F -5.2 °F 3.9 °F 76% 30.22 in 10.0 mi WNW 12.7 mph - N/A   Overcast
9:09 AM 10.4 °F -5.4 °F 3.2 °F 73% 30.21 in 10.0 mi WNW 13.8 mph - N/A   Overcast
9:54 AM 10.9 °F -2.6 °F 5.0 °F 77% 30.21 in 6.0 mi WNW 10.4 mph - 0.00 in Snow Light Snow
10:54 AM 12.0 °F -4.0 °F 7.0 °F 80% 30.21 in 4.0 mi WNW 15.0 mph - 0.00 in Snow Light Snow
11:54 AM 17.1 °F 3.6 °F 8.1 °F 68% 30.20 in 10.0 mi WNW 12.7 mph - 0.00 in   Overcast
12:54 PM 18.0 °F 6.1 °F 10.0 °F 71% 30.19 in 7.0 mi WNW 10.4 mph - 0.00 in Snow Light Snow
1:54 PM 18.0 °F 5.4 °F 12.9 °F 81% 30.17 in 2.5 mi WNW 11.5 mph - 0.00 in Snow Light Snow
2:35 PM 19.4 °F 8.6 °F 14.0 °F 80% 30.15 in 1.8 mi WNW 9.2 mph - 0.00 in Snow Light Snow
2:54 PM 19.0 °F 6.8 °F 14.0 °F 81% 30.15 in 2.0 mi WNW 11.5 mph - 0.00 in Snow Light Snow
3:18 PM 19.4 °F 6.6 °F 12.2 °F 74% 30.13 in 4.0 mi WNW 12.7 mph - 0.00 in Snow Light Snow
3:54 PM 21.9 °F 11.7 °F 14.0 °F 72% 30.13 in 5.0 mi NW 9.2 mph - 0.00 in   Haze
4:54 PM 19.0 °F 7.5 °F 12.9 °F 77% 30.11 in 10.0 mi WNW 10.4 mph - N/A   Overcast
5:54 PM 19.0 °F 5.6 °F 12.9 °F 77% 30.09 in 10.0 mi WNW 13.8 mph - N/A   Overcast
6:54 PM 19.9 °F 7.3 °F 14.0 °F 78% 30.06 in 10.0 mi WNW 12.7 mph - N/A   Overcast
7:54 PM 19.9 °F 6.2 °F 14.0 °F 78% 30.05 in 10.0 mi WNW 15.0 mph - N/A   Overcast
8:54 PM 19.9 °F 6.2 °F 15.1 °F 81% 30.02 in 10.0 mi WNW 15.0 mph - N/A   Overcast
9:54 PM 19.9 °F 5.7 °F 15.1 °F 81% 29.99 in 10.0 mi WNW 16.1 mph - N/A   Overcast
10:54 PM 19.0 °F 4.5 °F 15.1 °F 85% 29.97 in 10.0 mi WNW 16.1 mph - N/A   Overcast
11:08 PM 19.4 °F 4.1 °F 15.8 °F 86% 29.96 in 10.0 mi WNW 18.4 mph - N/A   Overcast
11:54 PM 19.9 °F 5.2 °F 16.0 °F 85% 29.95 in 10.0 mi WNW 17.3 mph - N/A   Overcast